Faribault, MN

2:07 AM CDT on August 25, 2016 (GMT -0500)
Faribault Municipal

Weather History for KFBL - July, 2012

Change the Weather History Date:

Wednesday, July 18, 2012

  Actual Average Record
Temperature  
Mean Temperature 76 °F -  
Max Temperature 82 °F 85 °F 95 °F (1957)
Min Temperature 69 °F 63 °F 35 °F (2002)
Cooling Degree Days 10    
Growing Degree Days 26 (Base 50)    
Moisture  
Dew Point 68 °F    
Average Humidity 83    
Maximum Humidity 94    
Minimum Humidity 69    
Precipitation  
Precipitation 0.77 in - - ()
Sea Level Pressure  
Sea Level Pressure 29.89 in    
Wind  
Wind Speed 6 mph (NE)    
Max Wind Speed 16 mph    
Max Gust Speed 22 mph    
Visibility 8 miles    
Events Rain , Thunderstorm    
Averages and records for this station are not official NWS values.
T = Trace of Precipitation, MM = Missing Value Source: NWS Daily Summary

Daily Weather History Graph

Daily Weather History Graph

Search for Another Location

Airport or City:

Trip Planner

Search our weather history database for the weather conditions in past years. The results will help you decide how hot, cold, wet, or windy it might be!

Date:

Astronomy

Jul. 18, 2012 Rise Set
Actual Time 5:46 AM CDT 8:52 PM CDT
Civil Twilight 5:11 AM CDT 9:26 PM CDT
Nautical Twilight 4:26 AM CDT 10:11 PM CDT
Astronomical Twilight 3:32 AM CDT 11:05 PM CDT
Moon 5:22 AM CDT (7/18) 8:19 PM CDT (7/18)
Length of Visible Light 16h 15m
Length of Day
15h 05m
Waning Crescent, 0% of the Moon is Illuminated
Jul 18
Waning Crescent
Jul 18
New
Jul 26
First Quarter
Aug 1
Full
Aug 9
Last Quarter

Hourly Weather History & Observations

Time (CDT) Temp. Heat Index Dew Point Humidity Pressure Visibility Wind Dir Wind Speed Gust Speed Precip Events Conditions
12:14 AM 73.4 °F - 68.0 °F 83% 29.88 in 10.0 mi NNE 6.9 mph - N/A   Clear
12:34 AM 73.4 °F - 68.0 °F 83% 29.88 in 10.0 mi NNE 5.8 mph - N/A   Clear
12:55 AM 73.4 °F - 66.2 °F 78% 29.88 in 10.0 mi NNE 8.1 mph - N/A   Clear
1:14 AM 71.6 °F - 66.2 °F 83% 29.87 in 10.0 mi NNE 5.8 mph - N/A   Clear
1:34 AM 71.6 °F - 66.2 °F 83% 29.86 in 10.0 mi NNE 4.6 mph - N/A   Clear
1:54 AM 71.6 °F - 66.2 °F 83% 29.86 in 10.0 mi NE 4.6 mph - N/A   Clear
2:14 AM 71.6 °F - 66.2 °F 83% 29.86 in 10.0 mi NE 3.5 mph - N/A   Clear
2:34 AM 71.6 °F - 66.2 °F 83% 29.87 in 10.0 mi Calm Calm - N/A   Clear
2:54 AM 69.8 °F - 66.2 °F 88% 29.87 in 10.0 mi North 3.5 mph - N/A   Clear
3:14 AM 71.6 °F - 66.2 °F 83% 29.86 in 10.0 mi NNE 4.6 mph - N/A   Clear
3:34 AM 69.8 °F - 66.2 °F 88% 29.86 in 10.0 mi Calm Calm - N/A   Clear
3:54 AM 69.8 °F - 66.2 °F 88% 29.86 in 10.0 mi NNE 3.5 mph - N/A   Clear
4:14 AM 69.8 °F - 66.2 °F 88% 29.85 in 10.0 mi NE 3.5 mph - N/A   Clear
4:34 AM 69.8 °F - 66.2 °F 88% 29.85 in 7.0 mi ENE 3.5 mph - N/A   Clear
4:54 AM 69.8 °F - 66.2 °F 88% 29.85 in 10.0 mi Calm Calm - N/A   Clear
5:14 AM 69.8 °F - 66.2 °F 88% 29.86 in 7.0 mi ENE 3.5 mph - N/A   Clear
5:34 AM 69.8 °F - 66.2 °F 88% 29.86 in 5.0 mi ENE 3.5 mph - N/A   Clear
5:54 AM 69.8 °F - 66.2 °F 88% 29.87 in 4.0 mi East 3.5 mph - N/A   Clear
6:14 AM 71.6 °F - 66.2 °F 83% 29.87 in 10.0 mi ESE 4.6 mph - N/A   Clear
6:34 AM 71.6 °F - 66.2 °F 83% 29.87 in 10.0 mi NNE 4.6 mph - N/A   Clear
6:54 AM 71.6 °F - 66.2 °F 83% 29.87 in 10.0 mi NE 4.6 mph - N/A   Clear
7:14 AM 71.6 °F - 68.0 °F 88% 29.87 in 10.0 mi NNE 3.5 mph - N/A   Clear
7:34 AM 73.4 °F - 68.0 °F 83% 29.87 in 10.0 mi ENE 4.6 mph - N/A   Clear
7:54 AM 73.4 °F - 69.8 °F 88% 29.87 in 10.0 mi East 6.9 mph - N/A   Scattered Clouds
8:15 AM 75.2 °F - 69.8 °F 83% 29.87 in 10.0 mi East 6.9 mph - N/A   Scattered Clouds
8:34 AM 75.2 °F - 69.8 °F 83% 29.87 in 10.0 mi East 6.9 mph - N/A   Mostly Cloudy
8:54 AM 78.8 °F - 69.8 °F 74% 29.87 in 10.0 mi ESE 6.9 mph - N/A   Mostly Cloudy
9:34 AM 80.6 °F 84.6 °F 71.6 °F 74% 29.87 in 10.0 mi East 6.9 mph - N/A   Scattered Clouds
9:54 AM 82.4 °F 87.2 °F 71.6 °F 70% 29.88 in 10.0 mi ENE 5.8 mph - N/A   Scattered Clouds
10:14 AM 80.6 °F 84.6 °F 71.6 °F 74% 29.88 in 10.0 mi Calm Calm - N/A   Mostly Cloudy
10:34 AM 80.6 °F 84.6 °F 71.6 °F 74% 29.91 in 10.0 mi NW 9.2 mph - N/A   Scattered Clouds
10:54 AM 78.8 °F - 69.8 °F 74% 29.92 in 10.0 mi NNW 11.5 mph 18.4 mph N/A   Mostly Cloudy
11:14 AM 78.8 °F - 69.8 °F 74% 29.92 in 10.0 mi North 10.4 mph - N/A   Scattered Clouds
11:34 AM 80.6 °F 84.6 °F 71.6 °F 74% 29.92 in 10.0 mi NNE 12.7 mph 18.4 mph N/A   Scattered Clouds
11:54 AM 78.8 °F - 69.8 °F 74% 29.93 in 10.0 mi NNE 11.5 mph 17.3 mph N/A   Scattered Clouds
12:14 PM 78.8 °F - 69.8 °F 74% 29.92 in 10.0 mi NE 10.4 mph 16.1 mph N/A   Scattered Clouds
12:34 PM 78.8 °F - 69.8 °F 74% 29.92 in 10.0 mi NE 12.7 mph 19.6 mph N/A Thunderstorm Clear
12:54 PM 78.8 °F - 69.8 °F 74% 29.91 in 7.0 mi ENE 16.1 mph 21.9 mph N/A   Clear
1:14 PM 78.8 °F - 69.8 °F 74% 29.90 in 7.0 mi ENE 15.0 mph 19.6 mph N/A Thunderstorm Clear
1:34 PM 78.8 °F - 69.8 °F 74% 29.89 in 7.0 mi East 9.2 mph - N/A   Clear
2:14 PM 78.8 °F - 69.8 °F 74% 29.88 in 7.0 mi East 13.8 mph 18.4 mph N/A   Clear
2:34 PM 78.8 °F - 69.8 °F 74% 29.87 in 10.0 mi ENE 9.2 mph 18.4 mph N/A   Clear
2:54 PM 78.8 °F - 68.0 °F 69% 29.88 in 7.0 mi ENE 10.4 mph - N/A   Clear
3:14 PM 75.2 °F - 66.2 °F 73% 29.88 in 10.0 mi East 10.4 mph 18.4 mph N/A   Clear
3:34 PM 77.0 °F - 68.0 °F 74% 29.86 in 10.0 mi ENE 10.4 mph 16.1 mph N/A Thunderstorm Thunderstorm
3:54 PM 75.2 °F - 66.2 °F 73% 29.86 in 10.0 mi SE 6.9 mph 17.3 mph N/A Thunderstorm Thunderstorm
4:14 PM 73.4 °F - 68.0 °F 83% 29.95 in 3.0 mi SSW 15.0 mph 19.6 mph 0.17 in Rain , Thunderstorm Heavy Thunderstorms and Rain
4:34 PM 71.6 °F - 68.0 °F 88% 29.93 in 2.0 mi ESE 8.1 mph - 0.69 in Rain , Thunderstorm Heavy Thunderstorms and Rain
4:54 PM 71.6 °F - 69.8 °F 94% 29.92 in 7.0 mi SE 8.1 mph - 0.74 in Rain , Thunderstorm Light Thunderstorms and Rain
5:14 PM 71.6 °F - 68.0 °F 88% 29.89 in 5.0 mi ESE 4.6 mph - N/A Rain Light Rain
5:34 PM 69.8 °F - 66.2 °F 88% 29.89 in 10.0 mi East 5.8 mph - N/A Rain Light Rain
5:54 PM 69.8 °F - 66.2 °F 88% 29.89 in 10.0 mi ESE 4.6 mph - 0.01 in Rain , Thunderstorm Heavy Thunderstorms and Rain
6:14 PM 69.8 °F - 66.2 °F 88% 29.88 in 10.0 mi Calm Calm - 0.01 in Rain , Thunderstorm Light Thunderstorms and Rain
6:34 PM 71.6 °F - 68.0 °F 88% 29.87 in 10.0 mi Calm Calm - 0.02 in Rain Light Rain
6:54 PM 71.6 °F - 69.8 °F 94% 29.87 in 10.0 mi East 3.5 mph - 0.02 in   Clear
7:14 PM 71.6 °F - 68.0 °F 88% 29.86 in 10.0 mi Calm Calm - N/A   Clear
7:34 PM 71.6 °F - 69.8 °F 94% 29.86 in 7.0 mi NNW 5.8 mph - N/A   Clear
7:54 PM 71.6 °F - 69.8 °F 94% 29.87 in 7.0 mi NNW 4.6 mph - N/A   Clear
8:14 PM 71.6 °F - 68.0 °F 88% 29.88 in 7.0 mi North 8.1 mph - N/A   Clear
8:34 PM 71.6 °F - 68.0 °F 88% 29.88 in 5.0 mi North 4.6 mph - N/A   Mostly Cloudy
8:54 PM 69.8 °F - 66.2 °F 88% 29.89 in 5.0 mi Calm Calm - N/A   Mostly Cloudy
9:14 PM 69.8 °F - 66.2 °F 88% 29.90 in 7.0 mi Calm Calm - N/A   Scattered Clouds
9:34 PM 69.8 °F - 66.2 °F 88% 29.91 in 7.0 mi North 5.8 mph - N/A   Mostly Cloudy
9:54 PM 69.8 °F - 66.2 °F 88% 29.92 in 7.0 mi North 3.5 mph - N/A   Overcast
10:14 PM 69.8 °F - 66.2 °F 88% 29.92 in 5.0 mi Calm Calm - N/A   Scattered Clouds
10:34 PM 69.8 °F - 66.2 °F 88% 29.93 in 5.0 mi Calm Calm - N/A   Scattered Clouds
10:54 PM 69.8 °F - 66.2 °F 88% 29.93 in 7.0 mi Calm Calm - N/A   Mostly Cloudy
11:14 PM 69.8 °F - 66.2 °F 88% 29.93 in 5.0 mi NNE 3.5 mph - N/A   Overcast
11:34 PM 69.8 °F - 66.2 °F 88% 29.93 in 5.0 mi NE 5.8 mph - N/A   Overcast
11:54 PM 69.8 °F - 66.2 °F 88% 29.94 in 5.0 mi Calm Calm - N/A   Overcast